Location: Dodo�i
(45.2972°N, 16.2814°E)
Time: 06:34:37
(UTC+00:00)

Daily predictions for brighter satellites

Satellite Brightness Start Highest point End
(mag) Time Altitude Azimuth Time Altitude Azimuth Time Altitude Azimuth
IRIDIUM 103 4.5 17:52:29 10° N 17:57:37 54° E 18:02:43 10° SSE
ARGOS Delta rocket 4.2 17:52:21 10° SSE 17:57:38 69° ENE 18:03:06 10° N
CZ-4 R/B 3.5 17:58:25 10° SSW 18:01:48 29° W 18:05:13 10° NW
Abrixas rocket 2.7 17:58:57 10° WNW 18:01:49 45° N 18:04:42 10° E
Cosmos 1470 4.1 17:58:05 10° SSW 18:01:50 45° WNW 18:05:37 10° N
Cosmos 1939 Rocket 4.5 17:58:14 10° SSW 18:01:54 38° W 18:05:32 10° NNW
CZ-2C R/B 4.0 17:58:50 10° NE 18:02:03 16° E 18:05:17 10° SE
STARLINK-29 4.0 18:00:04 10° SSW 18:02:48 26° SE 18:05:33 10° ENE
Cosmos 407 Rocket 4.0 18:01:42 10° SSE 18:06:22 36° ESE 18:11:01 10° NE
Cosmos 1953 2.4 18:03:08 10° S 18:07:06 86° W 18:11:07 10° N
STARLINK-60 3.0 18:04:11 10° SW 18:07:26 65° SE 18:10:42 10° ENE
ARGOS 3.4 18:02:20 10° SE 18:07:32 52° ENE 18:12:45 10° N
IRS-1A Rocket 4.4 18:04:58 10° SSE 18:10:40 72° ENE 18:16:31 10° N
ADEOS Rocket 3.9 18:06:22 10° N 18:12:33 55° WNW 18:18:08 10° SW
SL-24 R/B - RUBIN 2 4.5 18:09:58 10° S 18:15:15 49° ESE 18:21:12 10° NE
IRIDIUM 106 4.3 18:10:41 10° N 18:15:56 79° E 18:21:09 10° S
GEOS 3 Rocket 3.8 18:12:16 10° SSE 18:17:24 76° SW 18:22:39 10° NW
SPOT 3 Rocket 4.2 18:14:02 10° SE 18:18:49 39° ENE 18:23:37 10° N
COSMOS 2455 3.5 18:15:35 10° NNW 18:21:15 40° NE 18:26:23 12° ESE
CZ-2C R/B 4.4 18:17:23 10° NNE 18:21:40 34° E 18:25:50 10° SSE
MONITOR-E 3.7 18:22:28 10° SSE 18:25:04 67° ENE 18:27:42 10° N
SL-08 RB Rocket 3.8 18:25:50 10° SSE 18:30:18 58° ENE 18:34:51 10° N
NOSS 3-4 (A) 3.9 18:23:18 10° NW 18:30:19 79° NE 18:37:47 11° SE
NOSS 3-4 (C) 3.9 18:23:25 10° NW 18:30:26 78° NE 18:37:51 11° SE
STARLINK-1201 4.2 18:28:21 10° NW 18:31:22 34° NNE 18:33:43 15° E
Cosmos 1818 4.1 18:27:11 10° SW 18:32:35 65° NW 18:38:01 10° NNE
MOS 1 Rocket 4.3 18:28:53 10° NNE 18:33:48 34° E 18:38:43 10° SSE
Cosmos 1437 3.9 18:31:29 10° NNW 18:34:23 42° W 18:37:14 10° SSW
FALCON 9 DEB 3.3 18:34:11 10° SW 18:37:35 51° SE 18:40:54 11° ENE
STARLINK-1228 3.3 18:35:33 10° NW 18:38:26 47° NNE 18:40:03 21° E
Cosmos 2058 Rocket 3.3 18:35:30 10° S 18:39:51 51° E 18:44:14 10° NNE
ATLAS 5 CENTAUR R/B 1.4 18:36:15 10° SSW 18:40:18 62° ESE 18:44:51 10° NE
Cosmos 2184 Rocket 4.3 18:36:12 10° NNW 18:42:28 73° W 18:48:38 10° S
STARLINK-52 3.0 18:40:01 10° SW 18:43:09 54° SE 18:45:38 15° ENE
ATLAS 5 CENTAUR R/B 4.5 18:41:36 10° SSE 18:45:02 12° SE 18:46:39 12° SE
Cosmos 1726 Rocket 3.6 18:40:49 10° S 18:45:13 89° W 18:49:42 10° N
Aureole 1 Rocket 4.1 18:41:37 10° SSW 18:49:12 88° ESE 18:55:06 10° NNE
FREGAT/IRIS 3.9 18:47:34 10° SSW 18:50:06 36° W 18:52:40 10° NNW
SJ-6B 3.1 18:46:05 10° S 18:50:12 74° WSW 18:54:22 10° NNW
Meteor 2-17 Rocket 4.4 18:44:56 10° N 18:51:08 85° E 18:57:17 10° S
H-2A R/B 2.8 18:49:07 10° S 18:54:12 53° W 18:59:10 10° NNW
Cosmos 921 Rocket 2.9 18:50:36 10° NNW 18:54:46 62° ENE 18:57:17 23° SE
Resurs 01 Rocket 2.0 18:54:20 23° SE 18:56:46 45° ENE 19:00:59 10° N
USA 234 3.9 18:52:52 10° ENE 18:58:33 31° SE 19:04:11 10° S
Cosmos 1461 3.1 18:54:13 10° NW 18:58:47 85° SW 19:01:45 22° SSE
Nadezhda 1 Rocket 4.2 18:53:42 10° S 19:00:06 81° W 19:06:29 10° N
Cosmos 2228 3.9 18:55:55 10° SSW 19:00:07 52° WNW 19:04:23 10° N
SeaSat 1 4.4 18:56:57 10° N 19:01:17 32° NW 19:05:36 10° WSW
Iridium 4 Rocket 4.3 18:58:51 10° NNE 19:02:03 21° ENE 19:02:07 21° ENE
Cosmos 1300 2.9 19:00:26 23° SSE 19:02:27 46° E 19:06:07 10° NNE
ATLAS 2AS CENTAUR R/B 3.1 18:55:04 10° NW 19:02:35 68° WSW 19:08:25 15° SSE
CZ-2C R/B 3.9 18:58:23 10° S 19:03:03 46° W 19:07:39 10° NNW
Cosmos 962 Rocket 4.4 18:57:07 10° N 19:03:16 67° E 19:08:18 15° SSE
Cosmos 2154 Rocket 4.2 18:58:56 10° N 19:05:18 76° W 19:11:35 10° S
SL-8 Rocket 4.3 19:00:05 10° N 19:06:12 48° ENE 19:09:51 24° SE
USA 186 3.9 19:03:37 10° SSW 19:06:29 27° W 19:09:15 10° NW
Cosmos 2181 Rocket 4.2 19:02:05 13° SSE 19:07:25 46° E 19:13:17 10° NNE
Cosmos 1812 Rocket 4.3 19:09:03 30° E 19:09:19 30° E 19:13:05 10° NNE
Cosmos 1140 Rocket 3.5 19:06:05 10° SSW 19:11:16 84° WNW 19:16:28 10° NNE
BREEZE M DEB (TANK) 3.5 19:02:37 10° WSW 19:12:36 83° SSE 19:14:50 23° ENE
SL-4 R/B 3.0 19:11:17 10° W 19:14:27 35° NNW 19:16:52 15° NE
RESURS DK-1 4.3 19:12:29 10° N 19:15:09 16° NE 19:15:51 16° ENE
MINOTAUR IV R/B 4.4 19:10:48 10° SSW 19:15:16 76° ESE 19:19:47 10° NNE
Cosmos 1340 Rocket 3.4 19:12:50 10° SSW 19:16:50 59° WNW 19:20:49 10° N
Cosmos 2058 3.6 19:13:50 10° N 19:17:36 34° ENE 19:17:51 33° E
STARLINK-1246 4.4 19:14:03 10° NW 19:18:03 44° NNE 19:19:33 30° ENE
Cosmos 2366 rocket 4.2 19:13:44 10° N 19:19:41 48° ENE 19:22:17 31° SE
Spot 2 Rocket 3.9 19:19:29 33° ESE 19:21:08 44° ENE 19:25:59 10° N
STARLINK-1234 2.7 19:18:04 10° WNW 19:21:10 81° SSW 19:21:18 78° S
STARLINK-1209 2.7 19:18:37 10° WNW 19:21:42 75° SW 19:21:48 74° S
STARLINK-1203 4.2 19:17:56 10° NW 19:22:02 49° NNE 19:23:23 35° ENE
STARLINK-1233 2.7 19:18:55 10° NW 19:22:04 77° NNE 19:22:12 75° ENE
STARLINK-1212 2.7 19:19:22 10° NW 19:22:31 78° NNE 19:22:37 76° ENE
STARLINK-1105 2.7 19:19:48 10° NW 19:22:57 79° NNE 19:23:04 77° ENE
STARLINK-1224 4.3 19:19:02 10° NW 19:23:03 46° NNE 19:24:21 34° ENE
STARLINK-1206 2.7 19:20:18 10° NW 19:23:26 79° NNE 19:23:29 79° NE
STARLINK-1247 2.7 19:20:45 10° NW 19:23:52 80° NNE 19:23:55 80° NE
STARLINK-1227 2.7 19:21:09 10° NW 19:24:18 81° NNE 19:24:21 80° NE
STARLINK-1218 2.7 19:21:39 10° WNW 19:24:47 81° NNE 19:24:47 81° NNE
STARLINK-1226 2.7 19:22:05 10° WNW 19:25:13 82° NNE 19:25:13 82° NNE
COSMOS 2406 4.1 19:26:20 28° E 19:26:20 28° E 19:30:16 10° NE
STARLINK-1254 2.8 19:22:30 10° WNW 19:25:39 83° NNE 19:25:39 83° NNE
STARLINK-1215 2.8 19:23:01 10° WNW 19:26:05 82° N 19:26:05 82° N
STARLINK-1231 2.8 19:23:27 10° WNW 19:26:31 82° N 19:26:31 82° N
ERBS 3.3 19:23:28 10° NW 19:26:37 35° NNE 19:26:51 34° NE
STARLINK-1232 2.8 19:24:21 10° WNW 19:27:23 82° NNW 19:27:23 82° NNW
STARLINK-1217 2.8 19:24:48 10° WNW 19:27:50 82° NNW 19:27:50 82° NNW
STARLINK-1225 4.2 19:24:02 10° NW 19:28:04 49° NNE 19:29:09 38° ENE
STARLINK-1208 2.8 19:25:13 10° WNW 19:28:16 82° NNW 19:28:16 82° NNW
STARLINK-1229 2.8 19:25:42 10° WNW 19:28:41 80° NW 19:28:41 80° NW
STARLINK-1271 2.9 19:26:09 10° WNW 19:29:08 79° NW 19:29:08 79° NW
STARLINK-1270 2.9 19:26:37 10° WNW 19:29:34 78° NW 19:29:34 78° NW
STARLINK-1154 2.9 19:27:03 10° WNW 19:29:58 76° NW 19:29:58 76° NW
STARLINK-1197 2.9 19:27:58 10° WNW 19:30:52 75° WNW 19:30:52 75° WNW
STARLINK-1189 3.0 19:28:24 10° WNW 19:31:17 74° WNW 19:31:17 74° WNW
STARLINK-1198 3.0 19:28:52 10° WNW 19:31:43 72° WNW 19:31:43 72° WNW
STARLINK-1188 3.0 19:29:18 10° WNW 19:32:09 71° WNW 19:32:09 71° WNW
STARLINK-1230 4.1 19:29:00 10° NW 19:33:03 52° NNE 19:33:55 43° ENE
STARLINK-1235 3.2 19:29:58 10° WNW 19:32:50 62° WSW 19:32:50 62° WSW
STARLINK-1187 3.1 19:30:23 10° WNW 19:33:15 67° W 19:33:15 67° W
DMSP B5D2-2 4.3 19:28:22 10° N 19:33:34 70° WNW 19:38:46 10° SSW
Cosmos 1076 Rocket 3.6 19:29:45 10° N 19:33:57 53° ENE 19:34:16 52° E
STARLINK-1199 3.1 19:31:14 10° WNW 19:34:04 68° WNW 19:34:04 68° WNW
STARLINK-1191 3.1 19:31:42 10° WNW 19:34:30 67° WNW 19:34:30 67° WNW
STARLINK-1210 3.2 19:32:09 10° WNW 19:34:56 66° WNW 19:34:56 66° WNW
STARLINK-1221 3.2 19:32:37 10° WNW 19:35:23 65° WNW 19:35:23 65° WNW
STARLINK-1219 3.2 19:33:03 10° WNW 19:35:48 64° WNW 19:35:48 64° WNW
STARLINK-1222 3.2 19:33:30 10° WNW 19:36:14 63° WNW 19:36:14 63° WNW
STARLINK-1211 3.3 19:33:58 10° WNW 19:36:41 62° WNW 19:36:41 62° WNW
Abrixas rocket 2.9 19:34:36 10° WNW 19:36:49 45° W 19:36:49 45° W
STARLINK-1214 3.3 19:34:24 10° WNW 19:37:06 61° WNW 19:37:06 61° WNW
STARLINK-1245 3.4 19:34:54 10° WNW 19:37:31 58° WNW 19:37:31 58° WNW
STARLINK-1243 3.9 19:33:57 10° NW 19:38:02 55° NNE 19:38:41 48° ENE
STARLINK-1238 3.4 19:35:18 10° WNW 19:37:59 59° WNW 19:37:59 59° WNW
Cosmos 1408 4.4 19:35:41 10° NNE 19:37:26 20° NE 19:37:26 20° NE
BREEZE-M DEB (TANK) 3.5 19:34:28 10° WNW 19:38:39 48° SW 19:38:39 48° SW
STARLINK-29 3.9 19:35:44 10° W 19:38:50 46° NNW 19:39:27 39° N
Cosmos 468 Rocket 4.1 19:34:06 10° NNW 19:39:11 54° ENE 19:40:10 47° ESE
STARLINK-1205 3.5 19:36:15 10° WNW 19:38:50 56° WNW 19:38:50 56° WNW
STARLINK-1204 3.5 19:36:42 10° WNW 19:39:15 54° WNW 19:39:15 54° WNW
SPOT 5 4.0 19:43:20 25° NE 19:43:20 25° NE 19:46:25 10° N
CZ-2C R/B 2.8 19:37:42 10° N 19:42:51 68° WNW 19:48:00 10° SSW
STARLINK-1236 3.8 19:38:56 10° NW 19:43:02 58° NNE 19:43:28 54° NE
Terra 3.3 19:46:44 23° ENE 19:46:44 23° ENE 19:50:10 10° NNE
Cosmos 1697 Rocket 3.7 19:42:23 10° N 19:47:23 31° NE 19:48:22 29° ENE
ERS-1 Rocket 3.6 19:47:11 38° ENE 19:47:25 39° ENE 19:52:04 10° N
Iridium 2 3.7 19:50:40 72° WSW 19:50:51 74° W 19:54:41 10° N
Meteor 2-1 Rocket 4.2 19:48:49 40° SSE 19:50:56 68° E 19:56:51 10° NNE
STARLINK-1269 3.7 19:48:52 10° NW 19:53:01 66° NNE 19:53:02 66° NNE
Cosmos-2242 4.5 19:56:38 25° NE 19:56:38 25° NE 19:58:51 10° NNE
Cosmos 192 4.2 19:52:34 10° NNW 19:57:33 87° WSW 19:58:14 67° SSE
STARLINK-1200 3.7 19:53:51 10° NW 19:57:49 69° N 19:57:49 69° N
Cosmos 1821 Rocket 4.5 19:54:39 10° N 20:00:42 42° ENE 20:01:17 41° E
STARLINK-1192 3.8 19:58:50 10° NW 20:02:36 68° NNW 20:02:36 68° NNW
COSMOS 2455 3.8 20:01:36 10° NW 20:07:13 41° WSW 20:09:33 29° SSW
SL-08 R/B 4.4 20:01:06 10° N 20:07:16 75° E 20:08:27 59° SE
STARLINK-1244 3.9 20:03:48 10° WNW 20:07:23 64° NW 20:07:23 64° NW
Cosmos 1656 3.6 20:04:57 10° NNW 20:10:40 72° ENE 20:11:09 67° E
Cosmos 1455 4.1 20:13:23 22° NNE 20:13:23 22° NNE 20:14:55 10° NNE
STARLINK-1138 4.1 20:08:47 10° WNW 20:12:10 58° NW 20:12:10 58° NW
IGS 5A 3.8 20:13:40 63° NNW 20:13:40 63° NNW 20:17:12 10° NNW
Cosmos 1980 Rocket 3.4 20:12:11 10° N 20:17:03 29° NE 20:17:17 29° NE
Cosmos 1892 3.6 20:14:03 10° NNW 20:17:06 48° NW 20:17:06 48° NW
STARLINK-1143 4.3 20:13:45 10° WNW 20:16:56 52° WNW 20:16:56 52° WNW
Cosmos 1741 Rocket 4.0 20:18:19 64° SW 20:19:10 84° WNW 20:24:33 10° NNE
ATLAS CENTAUR R/B 3.1 20:17:12 10° NNW 20:19:27 24° NNE 20:19:27 24° NNE
SPOT 1/Viking Rocket 3.4 20:21:22 80° SSW 20:21:35 83° WSW 20:26:51 10° NNW
CARTOSAT-1 4.3 20:22:53 46° N 20:22:53 46° N 20:26:04 10° N
BREEZE M DEB (TANK) 3.5 20:18:37 10° WSW 20:22:29 81° NNW 20:35:27 10° ENE
Cosmos 1825 4.0 20:21:32 10° N 20:23:21 26° N 20:23:21 26° N
ATLAS 5 CENTAUR R/B 4.0 20:21:55 10° W 20:25:24 23° NNW 20:29:15 10° NNE
CZ-4C R/B 3.5 20:20:30 10° NNW 20:27:12 45° NE 20:29:18 38° E
Cosmos 2208 Rocket 4.2 20:23:27 10° NNW 20:28:09 63° NNE 20:28:09 63° NNE
Cosmos 1763 Rocket 3.6 20:25:58 10° NNW 20:30:58 66° W 20:30:58 66° W
Resurs 01 Rocket 3.8 20:31:53 16° WSW 20:33:29 19° W 20:36:38 10° NW
Okean 3 Rocket 4.4 20:30:27 10° N 20:33:37 46° N 20:33:37 46° N
Cosmos 540 Rocket 3.8 20:32:33 10° NNW 20:36:54 59° NNE 20:36:54 59° NNE
USA 234 3.2 20:35:25 10° NE 20:41:59 83° NW 20:48:32 10° WSW
Cosmos 1814 Rocket 4.3 20:38:03 10° NNW 20:42:40 64° N 20:42:40 64° N
Cosmos 2082 Rocket 3.8 20:49:07 23° NE 20:49:07 23° NE 20:51:20 10° NE
Cosmos 2278 4.1 20:40:49 10° NNW 20:45:43 52° NNE 20:45:43 52° NNE
RESURS DK-1 4.2 20:49:30 10° NNW 20:51:45 30° NW 20:51:45 30° NW
Cosmos 1833 Rocket 3.4 20:56:29 46° NNE 20:56:29 46° NNE 21:00:21 10° NNE
Meteor 2-10 Rocket 4.1 20:58:38 55° WNW 20:58:38 55° WNW 21:03:38 10° N
Cosmos 841 Rocket 4.4 21:04:12 10° NNW 21:08:12 46° WNW 21:08:12 46° WNW
COSMOS 2406 4.1 21:08:16 40° W 21:09:30 47° WNW 21:15:01 10° NNE
Nadezhda 3 Rocket 4.4 21:15:55 57° W 21:16:11 57° WNW 21:22:23 10° N
Terra 3.4 21:25:36 32° NW 21:25:36 32° NW 21:28:29 10° NNW
Cosmos 1697 Rocket 3.8 21:26:07 10° NW 21:30:07 39° WNW 21:30:07 39° WNW
SL-16 R/B 3.5 21:46:26 10° NNW 21:50:12 36° NNE 21:50:12 36° NNE
Cosmos 2360 Rocket 4.0 21:49:13 10° N 21:53:01 24° NE 21:53:01 24° NE
Mayak 1.5 21:55:16 10° N 21:56:22 17° NNW 21:56:22 17° NNW
Cosmos 2322 Rocket 3.6 21:54:11 10° NNW 21:57:48 34° NNE 21:57:48 34° NNE
Cosmos 1980 Rocket 3.6 21:55:54 10° NW 21:59:03 32° NW 21:59:03 32° NW
CZ-4C R/B 3.5 22:08:57 10° NW 22:14:29 49° W 22:14:29 49° W
USA 234 4.4 22:18:35 10° NE 22:24:33 39° NNW 22:30:31 10° W
Cosmos 2082 Rocket 3.8 22:30:54 30° NW 22:30:54 30° NW 22:35:12 10° N
Cosmos 2219 Rocket 4.0 22:47:01 10° N 22:50:59 24° NE 22:50:59 24° NE
COSMOS 2428 4.2 23:11:45 10° NNW 23:15:50 31° NNE 23:15:50 31° NNE
SL-16 R/B 4.1 23:17:35 27° ENE 23:18:07 27° ENE 23:23:11 10° N
SL-16 R/B 4.5 23:30:57 10° NW 23:32:03 15° NW 23:32:03 15° NW
Cosmos 2360 Rocket 4.0 23:32:39 10° NNW 23:34:46 23° NW 23:34:46 23° NW
Cosmos 2322 Rocket 4.5 23:38:36 10° NW 23:39:36 15° NW 23:39:36 15° NW
CZ-2D R/B 4.0 23:40:03 10° NE 23:43:03 23° ENE 23:43:03 23° ENE
SJ 16-02 4.0 23:52:41 17° NE 23:52:41 17° NE 23:53:47 10° NNE
